Location: Abraham Lincoln Continuation High School
(33.9711°N, 117.3662°W)
Time: 05:08:17
(UTC+00:00)

Lacrosse 5 - Pass Details

Date: 26 January 2021
Orbit: 715 x 724 km, 57.0° (Epoch: 01 March)

Event Time Altitude Azimuth Distance (km) Brightness Sun altitude
Rises 02:35:48 0° 313° (NW) 3,117 5.7 -17.1°
Reaches altitude 10° 02:38:17 10° 306° (NW) 2,194 5.0 -17.6°
Maximum altitude 02:43:00 41° 237° (WSW) 1,035 3.2 -18.6°
Drops below altitude 10° 02:47:42 10° 168° (SSE) 2,187 4.3 -19.5°
Sets 02:50:10 0° 161° (SSE) 3,105 5.1 -20.1°
